User: anonymous   Login
Location: Unspecified
(0.0000°N, 0.0000°E)
Time: 14:55:55
(UTC+00:00)
Language:

N. Korean satellite - Orbit

View from above orbital plane
View from above orbital plane
View from above satellite
View from above satellite

Ground track
Ground track

The orbit data is extracted from the following two-line orbital elements,

1 39026U 12072A   16237.84373767  .00002093  00000-0  87170-4 0  9997
2 39026  97.2455 259.7544 0043386 143.2270 217.1958 15.23972529204838
Epoch (UTC): 24 August 2016 20:14:58
Eccentricity: 0.0043386
inclination: 97.2455°
perigee height: 464 km
apogee height: 523 km
right ascension of ascending node: 259.7544°
argument of perigee: 143.2270°
revolutions per day: 15.23972529
mean anomaly at epoch: 217.1958°
orbit number at epoch: 20483

The dashed part of the orbit path shows where the satellite is in the earth's shadow,  

DLR